{"data":{"norad_id":63566,"epoch":"2026-05-25T05:02:20.410944Z","epoch_age_seconds":60130,"freshness":"FRESH","line1":"1 63566U 25075U   26145.20995846  .00015949  00000+0  58764-3 0  9996","line2":"2 63566  43.0011 198.1267 0001682 261.0095  99.0566 15.27590838 63632","mean_motion":15.27590838,"eccentricity":0.0001682,"inclination_deg":43.0011,"raan_deg":198.1267,"arg_perigee_deg":261.0095,"mean_anomaly_deg":99.0566,"bstar":0.00058764,"rev_number":6363,"period_min":94.266079906929,"perigee_km":481.86259731776,"apogee_km":484.17068940339,"semimajor_km":6861.1536433606,"source":"CELESTRAK","updated_at":"2026-05-25T13:38:20.044467Z"}}